User: anonymous   Login
Location: Unspecified
(0.0000°N, 0.0000°E)
Time: 20:07:42
(UTC+00:00)
Language:

FAISAT - Orbit

View from above orbital plane
View from above orbital plane
View from above satellite
View from above satellite

Ground track
Ground track

The orbit data is extracted from the following two-line orbital elements,

1 23465U 95002C   19341.54458039  .00000038  00000-0  26017-4 0  9993
2 23465  82.9260 343.6608 0036287 301.9305 172.1300 13.71891806245263
Epoch (UTC): 07 December 2019 13:04:11
Eccentricity: 0.0036287
inclination: 82.9260°
perigee height: 966 km
apogee height: 1019 km
right ascension of ascending node: 343.6608°
argument of perigee: 301.9305°
revolutions per day: 13.71891806
mean anomaly at epoch: 172.1300°
orbit number at epoch: 24526

The dashed part of the orbit path shows where the satellite is in the earth's shadow,  

DLR